Starlink 30849

operational
NORAD ID: 58245 Int'l Des: 2023-171 Owner: SPXS Country: US Constellation: starlink
LEOCIRCULAR

Starlink 30849について

説明を読み込み中...

リアルタイム位置

3D地球を読み込み中...

次回通過

高度履歴

Altitude vs Time

uPlot chart will show altitude changes over time

軌道要素

1 58245U 23171R 25258.41594762 -.00000353 00000-0 -11103-4 0 9991
2 58245 43.0025 158.0525 0001313 263.7194 96.3499 15.02521004103369
Epoch: Sep 15, 2025 • Age: 18 hours

現在のステータス

高度 563.2 km
速度 7.59 km/s
衛星直下点 43.10°N, 166.95°W
打ち上げ日 Nov 8, 2023
運用期間 1.8 years
タイプ internet

技術仕様

分類 Payload
質量 730.00 kg
乾燥質量 700.00 kg
総質量 730.00 kg
長さ 0.30 m
直径 4.10 m
スパン 29.00 m
形状 Box + pan
製造者 SPXS
バスタイプ Starlink V2M
フェーズステータス In Orbit
所有者/国 SPXS/US

大規模コンステレーション

Loading constellations...